owner,sensor,date,latitude,longitude,vertical_datum,wind_speed,wind_to_direction,wind_speed_of_gust,qcFlag 
TABS,ioos:station:wmo:42045:1,2007-08-01T00:00:00Z,26.2168,-96.4998,4.0,4.959889112,169.0754414,6.54,'11111222,11111222,11111222' 
TABS,ioos:station:wmo:42045:1,2007-08-01T00:30:00Z,26.2168,-96.4998,4.0,4.871550061,163.0531688,6.25,'11111222,11111222,11111222' 
TABS,ioos:station:wmo:42045:1,2007-08-01T01:00:00Z,26.2168,-96.4998,4.0,5.151397869,158.715201,6.36,'11111222,11111222,11111222' 
TABS,ioos:station:wmo:42045:1,2007-08-01T01:30:00Z,26.2168,-96.4998,4.0,5.185990744,151.5573483,6.23,'11111222,11111222,11111222' 
TABS,ioos:station:wmo:42045:1,2007-08-01T02:00:00Z,26.2168,-96.4998,4.0,5.312664115,144.0363541,6.65,'11111222,11111222,11111222' 
TABS,ioos:station:wmo:42045:1,2007-08-01T02:30:00Z,26.2168,-96.4998,4.0,5.223887441,149.2622467,6.44,'11111222,11111222,11111222' 
TABS,ioos:station:wmo:42045:1,2007-08-01T03:00:00Z,26.2168,-96.4998,4.0,5.282518339,160.1932163,6.9,'11111222,11111222,11111222' 
TABS,ioos:station:wmo:42045:1,2007-08-01T03:30:00Z,26.2168,-96.4998,4.0,5.457481104,171.6771132,7.32,'11111222,11111222,11111222' 
TABS,ioos:station:wmo:42045:1,2007-08-01T04:00:00Z,26.2168,-96.4998,4.0,5.061906755,172.6224994,6.33,'11111222,11111222,11111222' 
TABS,ioos:station:wmo:42045:1,2007-08-01T04:30:00Z,26.2168,-96.4998,4.0,4.521338297,172.2464772,5.9,'11111222,11111222,11111222' 
TABS,ioos:station:wmo:42045:1,2007-08-01T05:00:00Z,26.2168,-96.4998,4.0,4.503709582,172.9856677,5.55,'11111222,11111222,11111222' 
TABS,ioos:station:wmo:42045:1,2007-08-01T05:30:00Z,26.2168,-96.4998,4.0,4.59213458,178.2531725,5.99,'11111222,11111222,11111222' 
TABS,ioos:station:wmo:42045:1,2007-08-01T06:00:00Z,26.2168,-96.4998,4.0,4.99009018,179.6557518,6.44,'11111222,11111222,11111222' 
TABS,ioos:station:wmo:42045:1,2007-08-01T06:30:00Z,26.2168,-96.4998,4.0,5.464942818,188.8420043,7.08,'11111222,11111222,11111222' 
TABS,ioos:station:wmo:42045:1,2007-08-01T07:00:00Z,26.2168,-96.4998,4.0,5.018973999,183.4269956,6.95,'11111222,11111222,11111222' 
TABS,ioos:station:wmo:42045:1,2007-08-01T07:30:00Z,26.2168,-96.4998,4.0,4.472862618,182.0501861,5.81,'11111222,11111222,11111222' 
TABS,ioos:station:wmo:42045:1,2007-08-01T08:00:00Z,26.2168,-96.4998,4.0,4.624770265,182.6027666,6.2,'11111222,11111222,11111222' 
TABS,ioos:station:wmo:42045:1,2007-08-01T08:30:00Z,26.2168,-96.4998,4.0,4.730042283,179.757947,6.18,'11111222,11111222,11111222' 
TABS,ioos:station:wmo:42045:1,2007-08-01T09:00:00Z,26.2168,-96.4998,4.0,4.341658669,178.4164026,5.76,'11111222,11111222,11111222' 
TABS,ioos:station:wmo:42045:1,2007-08-01T09:30:00Z,26.2168,-96.4998,4.0,4.630388753,176.1614517,6.14,'11111222,11111222,11111222' 
TABS,ioos:station:wmo:42045:1,2007-08-01T10:00:00Z,26.2168,-96.4998,4.0,4.508092723,183.4338328,5.9,'11111222,11111222,11111222' 
TABS,ioos:station:wmo:42045:1,2007-08-01T10:30:00Z,26.2168,-96.4998,4.0,4.961007962,178.8452128,6.4,'11111222,11111222,11111222' 
TABS,ioos:station:wmo:42045:1,2007-08-01T11:00:00Z,26.2168,-96.4998,4.0,5.226901568,175.3913342,6.58,'11111222,11111222,11111222' 
TABS,ioos:station:wmo:42045:1,2007-08-01T11:30:00Z,26.2168,-96.4998,4.0,4.922936116,171.5903172,6.54,'11111222,11111222,11111222' 
TABS,ioos:station:wmo:42045:1,2007-08-01T12:00:00Z,26.2168,-96.4998,4.0,4.523825815,159.9630471,5.67,'11111222,11111222,11111222' 
TABS,ioos:station:wmo:42045:1,2007-08-01T12:30:00Z,26.2168,-96.4998,4.0,4.165405142,157.5602733,5.54,'11111222,11111222,11111222' 
TABS,ioos:station:wmo:42045:1,2007-08-01T13:00:00Z,26.2168,-96.4998,4.0,4.168692841,162.6954213,5.5,'11111222,11111222,11111222' 
TABS,ioos:station:wmo:42045:1,2007-08-01T13:30:00Z,26.2168,-96.4998,4.0,4.272001873,159.4442133,5.84,'11111222,11111222,11111222' 
TABS,ioos:station:wmo:42045:1,2007-08-01T14:00:00Z,26.2168,-96.4998,4.0,4.46968679,158.198852,5.74,'11111222,11111222,11111222' 
TABS,ioos:station:wmo:42045:1,2007-08-01T14:30:00Z,26.2168,-96.4998,4.0,4.694699138,159.9441626,5.96,'11111222,11111222,11111222' 
TABS,ioos:station:wmo:42045:1,2007-08-01T15:00:00Z,26.2168,-96.4998,4.0,4.019763675,167.2086098,5.21,'11111222,11111222,11111222' 
TABS,ioos:station:wmo:42045:1,2007-08-01T15:30:00Z,26.2168,-96.4998,4.0,4.04042077,167.8559608,5.24,'11111222,11111222,11111222' 
TABS,ioos:station:wmo:42045:1,2007-08-01T16:00:00Z,26.2168,-96.4998,4.0,3.523194573,171.0191504,4.62,'11111222,11111222,11111222' 
TABS,ioos:station:wmo:42045:1,2007-08-01T16:30:00Z,26.2168,-96.4998,4.0,3.054390283,167.3290071,4.06,'11111222,11111222,11111222' 
TABS,ioos:station:wmo:42045:1,2007-08-01T17:00:00Z,26.2168,-96.4998,4.0,2.887923129,162.882935,3.71,'11111222,11111222,11111222' 
TABS,ioos:station:wmo:42045:1,2007-08-01T17:30:00Z,26.2168,-96.4998,4.0,2.862481441,156.7491094,3.74,'11111222,11111222,11111222' 
TABS,ioos:station:wmo:42045:1,2007-08-01T18:00:00Z,26.2168,-96.4998,4.0,3.20407553,162.7529022,4.12,'11111222,11111222,11111222' 
TABS,ioos:station:wmo:42045:1,2007-08-01T18:30:00Z,26.2168,-96.4998,4.0,3.097385995,149.5441157,4.03,'11111222,11111222,11111222' 
TABS,ioos:station:wmo:42045:1,2007-08-01T19:00:00Z,26.2168,-96.4998,4.0,3.160965043,148.3215337,4.18,'11111222,11111222,11111222' 
TABS,ioos:station:wmo:42045:1,2007-08-01T19:30:00Z,26.2168,-96.4998,4.0,3.481407761,140.5951001,4.97,'11111222,11111222,11111222' 
TABS,ioos:station:wmo:42045:1,2007-08-01T20:00:00Z,26.2168,-96.4998,4.0,3.906123398,172.2020316,5.39,'11111222,11111222,11111222' 
TABS,ioos:station:wmo:42045:1,2007-08-01T20:30:00Z,26.2168,-96.4998,4.0,3.691774641,158.7176112,4.72,'11111222,11111222,11111222' 
TABS,ioos:station:wmo:42045:1,2007-08-01T21:00:00Z,26.2168,-96.4998,4.0,3.571288283,168.5329856,4.85,'11111222,11111222,11111222' 
TABS,ioos:station:wmo:42045:1,2007-08-01T21:30:00Z,26.2168,-96.4998,4.0,3.865811687,167.9054817,5.2,'11111222,11111222,11111222' 
TABS,ioos:station:wmo:42045:1,2007-08-01T22:00:00Z,26.2168,-96.4998,4.0,4.119283918,150.6349488,5.3,'11111222,11111222,11111222' 
TABS,ioos:station:wmo:42045:1,2007-08-01T22:30:00Z,26.2168,-96.4998,4.0,3.984218869,150.861868,5.47,'11111222,11111222,11111222' 
TABS,ioos:station:wmo:42045:1,2007-08-01T23:00:00Z,26.2168,-96.4998,4.0,4.106494856,139.4444114,5.32,'11111222,11111222,11111222' 
TABS,ioos:station:wmo:42045:1,2007-08-01T23:30:00Z,26.2168,-96.4998,4.0,4.308004178,154.8628547,5.97,'11111222,11111222,11111222' 
TABS,ioos:station:wmo:42045:1,2007-08-02T00:00:00Z,26.2168,-96.4998,4.0,4.416786162,169.3008921,5.73,'11111222,11111222,11111222' 
TABS,ioos:station:wmo:42045:1,2007-08-02T00:30:00Z,26.2168,-96.4998,4.0,4.482064257,166.0570121,6.19,'11111222,11111222,11111222' 
TABS,ioos:station:wmo:42045:1,2007-08-02T01:00:00Z,26.2168,-96.4998,4.0,4.526201498,157.1174869,5.92,'11111222,11111222,11111222' 
TABS,ioos:station:wmo:42045:1,2007-08-02T01:30:00Z,26.2168,-96.4998,4.0,4.995087587,163.1252186,6.07,'11111222,11111222,11111222' 
TABS,ioos:station:wmo:42045:1,2007-08-02T02:00:00Z,26.2168,-96.4998,4.0,5.47644045,167.6643459,7.49,'11111222,11111222,11111222' 
TABS,ioos:station:wmo:42045:1,2007-08-02T02:30:00Z,26.2168,-96.4998,4.0,5.626117667,171.2076127,7.11,'11111222,11111222,11111222' 
TABS,ioos:station:wmo:42045:1,2007-08-02T03:00:00Z,26.2168,-96.4998,4.0,5.345390538,177.426857,6.65,'11111222,11111222,11111222' 
TABS,ioos:station:wmo:42045:1,2007-08-02T03:30:00Z,26.2168,-96.4998,4.0,5.460915674,178.950957,6.83,'11111222,11111222,11111222' 
TABS,ioos:station:wmo:42045:1,2007-08-02T04:00:00Z,26.2168,-96.4998,4.0,5.961417617,181.2497496,7.37,'11111222,11111222,11111222' 
TABS,ioos:station:wmo:42045:1,2007-08-02T04:30:00Z,26.2168,-96.4998,4.0,5.650884886,181.0141868,7.59,'11111222,11111222,11111222' 
TABS,ioos:station:wmo:42045:1,2007-08-02T05:00:00Z,26.2168,-96.4998,4.0,5.87667423,177.2692684,8.11,'11111222,11111222,11111222' 
TABS,ioos:station:wmo:42045:1,2007-08-02T05:30:00Z,26.2168,-96.4998,4.0,5.713326527,183.9143385,7.27,'11111222,11111222,11111222' 
TABS,ioos:station:wmo:42045:1,2007-08-02T06:00:00Z,26.2168,-96.4998,4.0,5.209232189,183.4118745,6.79,'11111222,11111222,11111222' 
TABS,ioos:station:wmo:42045:1,2007-08-02T06:30:00Z,26.2168,-96.4998,4.0,5.439209501,187.7131722,6.8,'11111222,11111222,11111222' 
TABS,ioos:station:wmo:42045:1,2007-08-02T07:00:00Z,26.2168,-96.4998,4.0,5.382118542,192.2287726,6.78,'11111222,11111222,11111222' 
TABS,ioos:station:wmo:42045:1,2007-08-02T07:30:00Z,26.2168,-96.4998,4.0,5.773673008,192.8088451,7.23,'11111222,11111222,11111222' 
TABS,ioos:station:wmo:42045:1,2007-08-02T08:00:00Z,26.2168,-96.4998,4.0,5.38164473,200.2197647,6.79,'11111222,11111222,11111222' 
TABS,ioos:station:wmo:42045:1,2007-08-02T08:30:00Z,26.2168,-96.4998,4.0,4.85049482,190.4529468,6.22,'11111222,11111222,11111222' 
TABS,ioos:station:wmo:42045:1,2007-08-02T09:00:00Z,26.2168,-96.4998,4.0,5.14628021,186.8075947,6.65,'11111222,11111222,11111222' 
TABS,ioos:station:wmo:42045:1,2007-08-02T09:30:00Z,26.2168,-96.4998,4.0,5.096636146,182.9243621,6.32,'11111222,11111222,11111222' 
TABS,ioos:station:wmo:42045:1,2007-08-02T10:00:00Z,26.2168,-96.4998,4.0,4.850010309,180.1183456,6.74,'11111222,11111222,11111222' 
TABS,ioos:station:wmo:42045:1,2007-08-02T10:30:00Z,26.2168,-96.4998,4.0,4.125869605,183.0567838,5.38,'11111222,11111222,11111222' 
TABS,ioos:station:wmo:42045:1,2007-08-02T11:00:00Z,26.2168,-96.4998,4.0,4.770335418,185.292494,6.04,'11111222,11111222,11111222' 
TABS,ioos:station:wmo:42045:1,2007-08-02T11:30:00Z,26.2168,-96.4998,4.0,4.270702518,185.6440432,5.4,'11111222,11111222,11111222' 
TABS,ioos:station:wmo:42045:1,2007-08-02T12:00:00Z,26.2168,-96.4998,4.0,3.718843906,198.3376747,4.73,'11111222,11111222,11111222' 
TABS,ioos:station:wmo:42045:1,2007-08-02T12:30:00Z,26.2168,-96.4998,4.0,3.550014084,179.8388147,4.74,'11111222,11111222,11111222' 
TABS,ioos:station:wmo:42045:1,2007-08-02T13:00:00Z,26.2168,-96.4998,4.0,3.450289843,199.1178001,4.54,'11111222,11111222,11111222' 
TABS,ioos:station:wmo:42045:1,2007-08-02T13:30:00Z,26.2168,-96.4998,4.0,2.869233347,194.3270136,3.74,'11111222,11111222,11111222' 
TABS,ioos:station:wmo:42045:1,2007-08-02T14:00:00Z,26.2168,-96.4998,4.0,3.255656616,196.598276,4.37,'11111222,11111222,11111222' 
TABS,ioos:station:wmo:42045:1,2007-08-02T14:30:00Z,26.2168,-96.4998,4.0,3.273927305,201.3140965,4.21,'11111222,11111222,11111222' 
TABS,ioos:station:wmo:42045:1,2007-08-02T15:00:00Z,26.2168,-96.4998,4.0,3.20224921,200.4724421,4.15,'11111222,11111222,11111222' 
TABS,ioos:station:wmo:42045:1,2007-08-02T15:30:00Z,26.2168,-96.4998,4.0,2.675892375,199.6539886,3.59,'11111222,11111222,11111222' 
TABS,ioos:station:wmo:42045:1,2007-08-02T16:00:00Z,26.2168,-96.4998,4.0,2.801892218,198.9524443,3.53,'11111222,11111222,11111222' 
TABS,ioos:station:wmo:42045:1,2007-08-02T16:30:00Z,26.2168,-96.4998,4.0,2.890432494,162.0667856,4.07,'11111222,11111222,11111222' 
TABS,ioos:station:wmo:42045:1,2007-08-02T17:00:00Z,26.2168,-96.4998,4.0,3.361577011,168.1554715,4.32,'11111222,11111222,11111222' 
TABS,ioos:station:wmo:42045:1,2007-08-02T17:30:00Z,26.2168,-96.4998,4.0,2.828427125,151.2604824,3.64,'11111222,11111222,11111222' 
TABS,ioos:station:wmo:42045:1,2007-08-02T18:00:00Z,26.2168,-96.4998,4.0,3.168911485,144.5046522,4.12,'11111222,11111222,11111222' 
TABS,ioos:station:wmo:42045:1,2007-08-02T18:30:00Z,26.2168,-96.4998,4.0,3.222700731,140.0353886,4.15,'11111222,11111222,11111222' 
TABS,ioos:station:wmo:42045:1,2007-08-02T19:00:00Z,26.2168,-96.4998,4.0,3.148714023,149.0365263,4.07,'11111222,11111222,11111222' 
TABS,ioos:station:wmo:42045:1,2007-08-02T19:30:00Z,26.2168,-96.4998,4.0,3.324530042,139.0251456,4.68,'11111222,11111222,11111222' 
TABS,ioos:station:wmo:42045:1,2007-08-02T20:00:00Z,26.2168,-96.4998,4.0,3.671648131,131.0247713,4.65,'11111222,11111222,11111222' 
TABS,ioos:station:wmo:42045:1,2007-08-02T20:30:00Z,26.2168,-96.4998,4.0,3.897717281,122.4264404,4.98,'11111222,11111222,11111222' 
TABS,ioos:station:wmo:42045:1,2007-08-02T21:00:00Z,26.2168,-96.4998,4.0,3.769044972,134.4628488,4.68,'11111222,11111222,11111222' 
TABS,ioos:station:wmo:42045:1,2007-08-02T21:30:00Z,26.2168,-96.4998,4.0,3.720053763,136.0894553,4.58,'11111222,11111222,11111222' 
TABS,ioos:station:wmo:42045:1,2007-08-02T22:00:00Z,26.2168,-96.4998,4.0,3.885614495,141.4786651,4.97,'11111222,11111222,11111222' 
TABS,ioos:station:wmo:42045:1,2007-08-02T22:30:00Z,26.2168,-96.4998,4.0,3.996961346,136.7237355,5.28,'11111222,11111222,11111222' 
TABS,ioos:station:wmo:42045:1,2007-08-02T23:00:00Z,26.2168,-96.4998,4.0,4.222001895,126.8159494,5.7,'11111222,11111222,11111222' 
TABS,ioos:station:wmo:42045:1,2007-08-02T23:30:00Z,26.2168,-96.4998,4.0,3.862563915,127.8492962,5.29,'11111222,11111222,11111222' 
TABS,ioos:station:wmo:42045:1,2007-08-03T00:00:00Z,26.2168,-96.4998,4.0,3.528809998,135.8040095,4.31,'11111222,11111222,11111222' 
TABS,ioos:station:wmo:42045:1,2007-08-03T00:30:00Z,26.2168,-96.4998,4.0,4.668275913,136.389029,6.08,'11111222,11111222,11111222' 
TABS,ioos:station:wmo:42045:1,2007-08-03T01:00:00Z,26.2168,-96.4998,4.0,4.371269838,164.8830782,5.47,'11111222,11111222,11111222' 
TABS,ioos:station:wmo:42045:1,2007-08-03T01:30:00Z,26.2168,-96.4998,4.0,3.517413823,160.2259024,4.18,'11111222,11111222,11111222' 
TABS,ioos:station:wmo:42045:1,2007-08-03T02:00:00Z,26.2168,-96.4998,4.0,3.50783409,157.8955427,4.37,'11111222,11111222,11111222' 
TABS,ioos:station:wmo:42045:1,2007-08-03T02:30:00Z,26.2168,-96.4998,4.0,4.234808142,165.5045944,4.94,'11111222,11111222,11111222' 
TABS,ioos:station:wmo:42045:1,2007-08-03T03:00:00Z,26.2168,-96.4998,4.0,4.091760013,159.3950466,4.89,'11111222,11111222,11111222' 
TABS,ioos:station:wmo:42045:1,2007-08-03T03:30:00Z,26.2168,-96.4998,4.0,5.095193814,177.4129727,6.95,'11111222,11111222,11111222' 
TABS,ioos:station:wmo:42045:1,2007-08-03T04:00:00Z,26.2168,-96.4998,4.0,5.07141006,183.844337,6.52,'11111222,11111222,11111222' 
TABS,ioos:station:wmo:42045:1,2007-08-03T04:30:00Z,26.2168,-96.4998,4.0,4.919725602,186.3018045,6.25,'11111222,11111222,11111222' 
TABS,ioos:station:wmo:42045:1,2007-08-03T05:00:00Z,26.2168,-96.4998,4.0,5.244435146,186.569617,6.32,'11111222,11111222,11111222' 
TABS,ioos:station:wmo:42045:1,2007-08-03T05:30:00Z,26.2168,-96.4998,4.0,4.862766702,185.5466534,6.12,'11111222,11111222,11111222' 
TABS,ioos:station:wmo:42045:1,2007-08-03T06:00:00Z,26.2168,-96.4998,4.0,4.849917525,183.664967,6.32,'11111222,11111222,11111222' 
TABS,ioos:station:wmo:42045:1,2007-08-03T06:30:00Z,26.2168,-96.4998,4.0,4.946766621,189.4244277,6.28,'11111222,11111222,11111222' 
TABS,ioos:station:wmo:42045:1,2007-08-03T07:00:00Z,26.2168,-96.4998,4.0,4.815651565,188.7192151,6.03,'11111222,11111222,11111222' 
TABS,ioos:station:wmo:42045:1,2007-08-03T07:30:00Z,26.2168,-96.4998,4.0,4.956863928,187.8850928,6.24,'11111222,11111222,11111222' 
TABS,ioos:station:wmo:42045:1,2007-08-03T08:00:00Z,26.2168,-96.4998,4.0,4.401545183,192.3313211,5.49,'11111222,11111222,11111222' 
TABS,ioos:station:wmo:42045:1,2007-08-03T08:30:00Z,26.2168,-96.4998,4.0,4.25376304,191.3893635,5.43,'11111222,11111222,11111222' 
TABS,ioos:station:wmo:42045:1,2007-08-03T09:00:00Z,26.2168,-96.4998,4.0,4.383263624,193.0535817,5.44,'11111222,11111222,11111222' 
TABS,ioos:station:wmo:42045:1,2007-08-03T09:30:00Z,26.2168,-96.4998,4.0,3.893096454,193.2154182,4.73,'11111222,11111222,11111222' 
TABS,ioos:station:wmo:42045:1,2007-08-03T10:00:00Z,26.2168,-96.4998,4.0,3.520908974,181.3021601,4.43,'11111222,11111222,11111222' 
TABS,ioos:station:wmo:42045:1,2007-08-03T10:30:00Z,26.2168,-96.4998,4.0,3.741082731,178.6217043,4.91,'11111222,11111222,11111222' 
TABS,ioos:station:wmo:42045:1,2007-08-03T11:00:00Z,26.2168,-96.4998,4.0,3.397793402,183.8815774,4.46,'11111222,11111222,11111222' 
TABS,ioos:station:wmo:42045:1,2007-08-03T11:30:00Z,26.2168,-96.4998,4.0,3.100580591,181.10902,4.3,'11111222,11111222,11111222' 
TABS,ioos:station:wmo:42045:1,2007-08-03T12:00:00Z,26.2168,-96.4998,4.0,3.851869676,178.2149501,5.03,'11111222,11111222,11111222' 
TABS,ioos:station:wmo:42045:1,2007-08-03T12:30:00Z,26.2168,-96.4998,4.0,3.502056539,181.9638634,4.71,'11111222,11111222,11111222' 
TABS,ioos:station:wmo:42045:1,2007-08-03T13:00:00Z,26.2168,-96.4998,4.0,2.906888371,183.9453875,3.79,'11111222,11111222,11111222' 
TABS,ioos:station:wmo:42045:1,2007-08-03T13:30:00Z,26.2168,-96.4998,4.0,3.291230773,194.2475316,4.45,'11111222,11111222,11111222' 
TABS,ioos:station:wmo:42045:1,2007-08-03T14:00:00Z,26.2168,-96.4998,4.0,2.620114501,191.2243446,3.64,'11111222,11111222,11111222' 
TABS,ioos:station:wmo:42045:1,2007-08-03T14:30:00Z,26.2168,-96.4998,4.0,2.801178323,185.120554,3.74,'11111222,11111222,11111222' 
TABS,ioos:station:wmo:42045:1,2007-08-03T15:00:00Z,26.2168,-96.4998,4.0,2.258937803,159.8004511,3.33,'11111222,11111222,11111222' 
TABS,ioos:station:wmo:42045:1,2007-08-03T15:30:00Z,26.2168,-96.4998,4.0,2.785390457,144.9408655,3.53,'11111222,11111222,11111222' 
TABS,ioos:station:wmo:42045:1,2007-08-03T16:00:00Z,26.2168,-96.4998,4.0,3.26547087,144.8501561,4.33,'11111222,11111222,11111222' 
TABS,ioos:station:wmo:42045:1,2007-08-03T16:30:00Z,26.2168,-96.4998,4.0,3.018095426,142.6747773,3.83,'11111222,11111222,11111222' 
TABS,ioos:station:wmo:42045:1,2007-08-03T17:00:00Z,26.2168,-96.4998,4.0,2.835507009,134.8574341,4.02,'11111222,11111222,11111222' 
TABS,ioos:station:wmo:42045:1,2007-08-03T17:30:00Z,26.2168,-96.4998,4.0,2.906630351,134.0245718,3.97,'11111222,11111222,11111222' 
TABS,ioos:station:wmo:42045:1,2007-08-03T18:00:00Z,26.2168,-96.4998,4.0,2.979345566,132.6879711,3.79,'11111222,11111222,11111222' 
TABS,ioos:station:wmo:42045:1,2007-08-03T18:30:00Z,26.2168,-96.4998,4.0,2.928497908,127.9267946,3.91,'11111222,11111222,11111222' 
TABS,ioos:station:wmo:42045:1,2007-08-03T19:00:00Z,26.2168,-96.4998,4.0,2.946879706,125.4702101,4.16,'11111222,11111222,11111222' 
TABS,ioos:station:wmo:42045:1,2007-08-03T19:30:00Z,26.2168,-96.4998,4.0,3.001932711,122.2080436,4.19,'11111222,11111222,11111222' 
TABS,ioos:station:wmo:42045:1,2007-08-03T20:00:00Z,26.2168,-96.4998,4.0,3.466020773,120.7089554,4.58,'11111222,11111222,11111222' 
TABS,ioos:station:wmo:42045:1,2007-08-03T20:30:00Z,26.2168,-96.4998,4.0,3.79056724,120.0827031,5.07,'11111222,11111222,11111222' 
TABS,ioos:station:wmo:42045:1,2007-08-03T21:00:00Z,26.2168,-96.4998,4.0,4.075708527,125.2111758,5.35,'11111222,11111222,11111222' 
TABS,ioos:station:wmo:42045:1,2007-08-03T21:30:00Z,26.2168,-96.4998,4.0,4.398920322,124.1600356,5.59,'11111222,11111222,11111222' 
TABS,ioos:station:wmo:42045:1,2007-08-03T22:00:00Z,26.2168,-96.4998,4.0,4.889427369,117.9280869,6.08,'11111222,11111222,11111222' 
TABS,ioos:station:wmo:42045:1,2007-08-03T22:30:00Z,26.2168,-96.4998,4.0,5.058309994,121.9937227,6.21,'11111222,11111222,11111222' 
TABS,ioos:station:wmo:42045:1,2007-08-03T23:00:00Z,26.2168,-96.4998,4.0,5.160474784,121.2878058,6.44,'11111222,11111222,11111222' 
TABS,ioos:station:wmo:42045:1,2007-08-03T23:30:00Z,26.2168,-96.4998,4.0,5.089449872,132.3724571,6.62,'11111222,11111222,11111222' 
TABS,ioos:station:wmo:42045:1,2007-08-04T00:00:00Z,26.2168,-96.4998,4.0,5.498372486,147.5530705,7.25,'11111222,11111222,11111222' 
TABS,ioos:station:wmo:42045:1,2007-08-04T00:30:00Z,26.2168,-96.4998,4.0,4.754787061,169.8247234,6.51,'11111222,11111222,11111222' 
TABS,ioos:station:wmo:42045:1,2007-08-04T01:00:00Z,26.2168,-96.4998,4.0,4.29773196,165.9963337,6.0,'11111222,11111222,11111222' 
TABS,ioos:station:wmo:42045:1,2007-08-04T01:30:00Z,26.2168,-96.4998,4.0,3.38245473,156.8461584,4.27,'11111222,11111222,11111222' 
TABS,ioos:station:wmo:42045:1,2007-08-04T02:00:00Z,26.2168,-96.4998,4.0,3.857939865,146.3102217,4.75,'11111222,11111222,11111222' 
TABS,ioos:station:wmo:42045:1,2007-08-04T02:30:00Z,26.2168,-96.4998,4.0,4.102742985,141.0351514,5.44,'11111222,11111222,11111222' 
TABS,ioos:station:wmo:42045:1,2007-08-04T03:00:00Z,26.2168,-96.4998,4.0,3.498128071,147.4914079,4.42,'11111222,11111222,11111222' 
TABS,ioos:station:wmo:42045:1,2007-08-04T03:30:00Z,26.2168,-96.4998,4.0,3.096853242,138.7969771,4.0,'11111222,11111222,11111222' 
TABS,ioos:station:wmo:42045:1,2007-08-04T04:00:00Z,26.2168,-96.4998,4.0,3.536000566,143.1628061,4.65,'11111222,11111222,11111222' 
TABS,ioos:station:wmo:42045:1,2007-08-04T04:30:00Z,26.2168,-96.4998,4.0,3.027688888,153.0966986,3.89,'11111222,11111222,11111222' 
TABS,ioos:station:wmo:42045:1,2007-08-04T05:00:00Z,26.2168,-96.4998,4.0,3.118926097,151.4631232,4.02,'11111222,11111222,11111222' 
TABS,ioos:station:wmo:42045:1,2007-08-04T05:30:00Z,26.2168,-96.4998,4.0,4.636431818,147.9556047,5.89,'11111222,11111222,11111222' 
TABS,ioos:station:wmo:42045:1,2007-08-04T06:00:00Z,26.2168,-96.4998,4.0,5.561025085,160.1315834,6.8,'11111222,11111222,11111222' 
TABS,ioos:station:wmo:42045:1,2007-08-04T06:30:00Z,26.2168,-96.4998,4.0,5.600446411,163.5067866,6.9,'11111222,11111222,11111222' 
TABS,ioos:station:wmo:42045:1,2007-08-04T07:00:00Z,26.2168,-96.4998,4.0,6.036704399,169.211498,7.53,'11111222,11111222,11111222' 
TABS,ioos:station:wmo:42045:1,2007-08-04T07:30:00Z,26.2168,-96.4998,4.0,6.959748559,172.487187,8.42,'11111222,11111222,11111222' 
TABS,ioos:station:wmo:42045:1,2007-08-04T08:00:00Z,26.2168,-96.4998,4.0,6.744130782,175.151917,8.69,'11111222,11111222,11111222' 
TABS,ioos:station:wmo:42045:1,2007-08-04T08:30:00Z,26.2168,-96.4998,4.0,6.000908265,172.5317726,7.58,'11111222,11111222,11111222' 
TABS,ioos:station:wmo:42045:1,2007-08-04T09:00:00Z,26.2168,-96.4998,4.0,6.112552658,174.084438,8.08,'11111222,11111222,11111222' 
TABS,ioos:station:wmo:42045:1,2007-08-04T09:30:00Z,26.2168,-96.4998,4.0,5.719344368,175.2864962,7.35,'11111222,11111222,11111222' 
TABS,ioos:station:wmo:42045:1,2007-08-04T10:00:00Z,26.2168,-96.4998,4.0,5.860827587,170.4736236,7.32,'11111222,11111222,11111222' 
TABS,ioos:station:wmo:42045:1,2007-08-04T10:30:00Z,26.2168,-96.4998,4.0,5.196017706,177.2424362,6.69,'11111222,11111222,11111222' 
TABS,ioos:station:wmo:42045:1,2007-08-04T11:00:00Z,26.2168,-96.4998,4.0,4.32042822,176.0185365,5.55,'11111222,11111222,11111222' 
TABS,ioos:station:wmo:42045:1,2007-08-04T11:30:00Z,26.2168,-96.4998,4.0,3.763841123,167.8842177,4.83,'11111222,11111222,11111222' 
TABS,ioos:station:wmo:42045:1,2007-08-04T12:00:00Z,26.2168,-96.4998,4.0,3.66,169.6113769,4.92,'11111222,11111222,11111222' 
TABS,ioos:station:wmo:42045:1,2007-08-04T12:30:00Z,26.2168,-96.4998,4.0,3.578407467,172.7759117,4.75,'11111222,11111222,11111222' 
TABS,ioos:station:wmo:42045:1,2007-08-04T13:00:00Z,26.2168,-96.4998,4.0,4.00824151,171.1019182,5.55,'11111222,11111222,11111222' 
TABS,ioos:station:wmo:42045:1,2007-08-04T13:30:00Z,26.2168,-96.4998,4.0,3.946897516,173.3073508,4.89,'11111222,11111222,11111222' 
TABS,ioos:station:wmo:42045:1,2007-08-04T14:00:00Z,26.2168,-96.4998,4.0,3.84398231,172.3760358,5.32,'11111222,11111222,11111222' 
TABS,ioos:station:wmo:42045:1,2007-08-04T14:30:00Z,26.2168,-96.4998,4.0,3.773857443,165.8903551,4.98,'11111222,11111222,11111222' 
TABS,ioos:station:wmo:42045:1,2007-08-04T15:00:00Z,26.2168,-96.4998,4.0,3.247660697,161.5095154,4.24,'11111222,11111222,11111222' 
TABS,ioos:station:wmo:42045:1,2007-08-04T15:30:00Z,26.2168,-96.4998,4.0,2.441003892,150.2845124,3.04,'11111222,11111222,11111222' 
TABS,ioos:station:wmo:42045:1,2007-08-04T16:00:00Z,26.2168,-96.4998,4.0,3.796972478,146.6031845,4.83,'11111222,11111222,11111222' 
TABS,ioos:station:wmo:42045:1,2007-08-04T16:30:00Z,26.2168,-96.4998,4.0,4.038378387,145.798667,5.14,'11111222,11111222,11111222' 
TABS,ioos:station:wmo:42045:1,2007-08-04T17:00:00Z,26.2168,-96.4998,4.0,3.790118732,135.2141044,4.91,'11111222,11111222,11111222' 
TABS,ioos:station:wmo:42045:1,2007-08-04T17:30:00Z,26.2168,-96.4998,4.0,4.55505214,131.5294042,5.69,'11111222,11111222,11111222' 
TABS,ioos:station:wmo:42045:1,2007-08-04T18:00:00Z,26.2168,-96.4998,4.0,5.009121679,125.6576861,6.47,'11111222,11111222,11111222' 
TABS,ioos:station:wmo:42045:1,2007-08-04T18:30:00Z,26.2168,-96.4998,4.0,5.636328592,128.5172572,6.99,'11111222,11111222,11111222' 